SPOT 6

Last updated on Tue Oct 28 2025 00:02:30 GMT+0000 (Coordinated Universal Time)

1 38755U 12047A 25300.50113604 .00000556 00000+0 12914-3 0 9997 2 38755 98.1629 6.1235 0001076 103.2179 256.9141 14.58595313699139
UTC large
Height (km)
Speed (km/s)
/
Latitude / Longitude
Inclination (degrees)
Orbital Period (minutes)
Azimuth
Elevation
Range (km)
Doppler Factor

Next 0 passes for location: London (51.5072 / 0.1276)

Sorry there are no passes over London.